Weather in Takaoka

Japan     36°44′49″N   137°00′41″E
temp.,
°C
wind,
m/s
gust,
m/s
humid.,
%
clouds,
%
prec.,
mm/h
press.,
hPa
HPBL,
m
22 january, sat
sat2200:00−3ssw128429 0.0 102975
03:00−4ssw228129 0.0 102972
06:00−3ssw128414 0.0 102866
09:000s23749 0.0 1029146
12:00+4ssw126822 0.0 1028474
15:00+5wsw126983 0.1 1027226
18:00+2nnw0184100 0.1 102624
21:000sw118721 0.1 102727
23 january, sun
sun2300:00−1ssw118561 0.0 102639
03:00−1se118046 0.0 102427
06:00−1sw1276100 0.0 102553
09:00+1sse1167100 0.0 1023103
12:00+4s1155100 0.0 1022314
15:00+5wsw1360100 0.0 1020305
18:00+3ssw2273100 0.0 101961
21:00+3sw2380100 0.0 102082
24 january, mon
mon2400:00+3w1288100 0.4 102078
03:00+2nnw0398100 1.8 1020327
06:00+2n029499 0.5 1020241
09:00+3nne257483 0.6 1021465
12:00+6ene455229 0.0 10201373
15:00+6ne45545 0.0 10201230
18:00+4nne366611 0.0 1021667
21:00+3ne3767100 0.0 1021447
25 january, tue
tue2500:00+3ese2469100 0.0 1021213
03:00+2sse1168100 0.0 102037
06:00+1wsw0065100 0.0 102038
09:00+3wnw0057100 0.0 1021168
12:00+5ne0051100 0.0 1020459
15:00+6ne1156100 0.0 1019785
18:00+4ne116867 0.0 102056
21:00+4wsw007290 0.0 102040
26 january, wed
wed2600:00+3wsw1177100 0.0 101948
03:00+2sw1277100 0.0 101961
06:00+2ssw117596 0.0 101933
09:00+4w126793 0.0 1018143
12:00+9wsw3748100 0.0 1016928
15:00+8wsw51073100 0.3 10161239
18:00+7wsw496766 0.9 1017975
21:00+6wnw386193 1.6 1019976